Regional Weather Roundup
Issued by NWS

Current Version | Previous Version | Text Only | Print | Product List | Glossary Off
Versions: 1 2 3 4 5 6 7 8 9 10 11 12 13 14 15 16 17 18 19 20 21 22 23 24 25 26 27 28 29 30 31 32 33 34 35 36 37 38 39 40 41 42 43 44 45 46 47 48 49 50

000
ASUS44 KBMX 310610
RWRAL

ALABAMA REGIONAL WEATHER ROUNDUP
NATIONAL WEATHER SERVICE BIRMINGHAM AL
100 AM CDT MON AUG 31 2015

NOTE: "FAIR" INDICATES FEW OR NO CLOUDS BELOW 12,000 FEET
WITH NO SIGNIFICANT WEATHER AND/OR OBSTRUCTIONS TO VISIBILITY.

THE REMARK "TC" DENOTES TEMPERATURE IN DEGREES CELSIUS.

ALZ001>011-014-016>018-020-310700-
NORTH ALABAMA

CITY           SKY/WX    TMP DP  RH WIND       PRES   REMARKS
MUSCLE SHOALS  FAIR      67  64  90 CALM      30.09R
6HR MIN TEMP:  66; 6HR MAX TEMP:  75;

HUNTSVILLE     FAIR      70  65  84 E6        30.08S
6HR MIN TEMP:  70; 6HR MAX TEMP:  76; 6HR PCP: TRACE;

DECATUR        FAIR      67  66  97 CALM      30.09R
6HR MIN TEMP:  67; 6HR MAX TEMP:  75;

HALEYVILLE     FAIR      65  65 100 CALM      30.10F
6HR MIN TEMP:  64; 6HR MAX TEMP:  74;

GADSDEN        CLOUDY    68  63  83 CALM      30.08S
6HR MIN TEMP:  66; 6HR MAX TEMP:  73;

$$

ALZ012-013-022-023-030>036-040>044-310700-
WEST CENTRAL ALABAMA

CITY           SKY/WX    TMP DP  RH WIND       PRES   REMARKS
TUSCALOOSA     MOCLDY    68  67  96 N3        30.06S
6HR MIN TEMP:  67; 6HR MAX TEMP:  76;

$$

ALZ015-024>027-033>036-040>044-310700-
CENTRAL ALABAMA

CITY           SKY/WX    TMP DP  RH WIND       PRES   REMARKS
BIRMINGHAM     MOCLDY    70  67  90 NE3       30.08F
6HR MIN TEMP:  70; 6HR MAX TEMP:  73;

MONTGOMERY     FAIR      72  69  90 CALM      30.04S
6HR MIN TEMP:  72; 6HR MAX TEMP:  82;

SHELBY CO ARPT MOCLDY    70  68  93 CALM      30.06F
6HR MIN TEMP:  70; 6HR MAX TEMP:  74;

MAXWELL AFB    FAIR      73  71  95 VRB2      30.03F
6HR MIN TEMP:  73; 6HR MAX TEMP:  80; 6HR PCP: TRACE;

GREENVILLE     FAIR      68  65  90 CALM      30.04F
6HR MIN TEMP:  68; 6HR MAX TEMP:  82;

$$

ALZ019-021-028-029-037-038-045>048-310700-
EAST CENTRAL ALABAMA

CITY           SKY/WX    TMP DP  RH WIND       PRES   REMARKS
ANNISTON       MOCLDY    69  66  90 CALM      30.08S
6HR MIN TEMP:  69; 6HR MAX TEMP:  74;

ALEXANDER CITY MOCLDY    74  72  93 CALM      30.07S
6HR MIN TEMP:  74; 6HR MAX TEMP:  77;

AUBURN         CLOUDY    72  70  93 E7        30.07F
6HR MIN TEMP:  72; 6HR MAX TEMP:  77;

$$

ALZ051>064-310700-
SOUTHWEST ALABAMA

CITY           SKY/WX    TMP DP  RH WIND       PRES   REMARKS
MOBILE         FAIR      73  68  84 CALM      30.04F
6HR MIN TEMP:  71; 6HR MAX TEMP:  82;

BROOKLEY FIELD FAIR      72  68  87 CALM      30.05S
6HR MIN TEMP:  71; 6HR MAX TEMP:  83;

EVERGREEN      FAIR      70  69  97 CALM      30.04F FOG
6HR MIN TEMP:  69; 6HR MAX TEMP:  82;

$$

ALZ049-050-065>069-310700-
SOUTHEAST ALABAMA

CITY           SKY/WX    TMP DP  RH WIND       PRES   REMARKS
DOTHAN         FAIR      72  70  93 CALM      30.06S
6HR MIN TEMP:  72; 6HR MAX TEMP:  82;

OZARK            N/A     70  67  91 NW2       30.02F
6HR MIN TEMP:  70; 6HR MAX TEMP:  84;

TROY           FAIR      69  67  93 CALM      30.05S
6HR MIN TEMP:  68; 6HR MAX TEMP:  82;

EUFAULA        FAIR      71  69  93 CALM      30.03S
6HR MIN TEMP:  70; 6HR MAX TEMP:  80;

$$



USA.gov is the U.S. government's official web portal to all federal, state and local government web resources and services.